FW6403 Weather Reports


Display with metric or nautical units.
time (UTC)temp
F
wind
direction
speed
MPH
gust
MPH
rain 1hr
in
rain 24hr
in
rain mn
in
humidity
%
barometer
mb
20260507144600 75 360 1.0 4.0 0.00 0.00 0.00 47 1012.2
20260507143108 75 360 0.0 5.0 0.00 0.00 0.00 44 1012.3
20260507141618 76 360 2.0 6.0 0.00 0.00 0.00 45 1012.1
20260507140058 76 273 1.0 6.0 0.00 0.00 0.00 44 1012.2
20260507134617 75 0 0.0 4.0 0.00 0.00 0.00 48 1012.3
20260507133110 74 0 1.0 4.0 0.00 0.00 0.00 49 1012.4
20260507131612 74 34 1.0 6.0 0.00 0.00 0.00 48 1012.5
20260507130058 74 360 0.0 3.0 0.00 0.00 0.00 50 1012.5
20260507124558 74 360 1.0 4.0 0.00 0.00 0.00 46 1012.6
20260507123112 75 360 1.0 4.0 0.00 0.00 0.00 48 1012.4
20260507121557 74 360 1.0 4.0 0.00 0.00 0.00 48 1012.7
20260507120058 74 360 0.0 5.0 0.00 0.00 0.00 50 1012.9
20260507114600 74 360 0.0 3.0 0.00 0.00 0.00 48 1012.9
20260507113057 74 360 2.0 5.0 0.00 0.00 0.00 48 1013.0
20260507111559 75 360 0.0 5.0 0.00 0.00 0.00 49 1013.1
20260507110057 74 360 1.0 5.0 0.00 0.00 0.00 45 1013.3
20260507104601 73 360 1.0 4.0 0.00 0.00 0.00 52 1013.3
20260507103100 73 360 1.0 5.0 0.00 0.00 0.00 51 1013.5
20260507101557 73 0 0.0 3.0 0.00 0.00 0.00 54 1013.6
20260507100110 73 360 1.0 5.0 0.00 0.00 0.00 53 1013.7
20260507094557 72 360 1.0 8.0 0.00 0.00 0.00 59 1013.7
20260507093059 71 360 1.0 4.0 0.00 0.00 0.00 56 1013.8
20260507091601 71 360 0.0 5.0 0.00 0.00 0.00 59 1013.8
20260507090103 71 360 1.0 4.0 0.00 0.00 0.00 58 1013.8
20260507084557 70 360 0.0 4.0 0.00 0.00 0.00 61 1013.7
20260507083058 69 360 0.0 5.0 0.00 0.00 0.00 62 1013.6
20260507081557 68 0 0.0 4.0 0.00 0.00 0.00 66 1013.6
20260507080117 67 360 0.0 4.0 0.00 0.00 0.00 66 1013.4
20260507074557 67 360 0.0 3.0 0.00 0.00 0.00 65 1013.6
20260507073057 66 0 0.0 3.0 0.00 0.00 0.00 67 1013.6
20260507071604 64 360 0.0 3.0 0.00 0.00 0.00 67 1013.4
20260507070104 63 360 1.0 3.0 0.00 0.00 0.00 67 1013.4
20260507064629 62 360 0.0 3.0 0.00 0.00 0.00 68 1013.3
20260507063112 61 0 0.0 2.0 0.00 0.00 0.00 70 1013.3
20260507061559 59 0 0.0 3.0 0.00 0.00 0.00 68 1013.2
20260507060115 57 0 0.0 2.0 0.00 0.00 0.00 70 1013.3
20260507054606 56 287 0.0 2.0 0.00 0.00 0.00 74 1013.1
20260507053107 54 0 0.0 0.0 0.00 0.00 0.00 77 1012.9
20260507051606 52 0 0.0 0.0 0.00 0.00 0.00 81 1012.7
20260507050055 51 0 0.0 0.0 0.00 0.00 0.00 82 1012.5
20260507044559 50 0 0.0 0.0 0.00 0.00 0.00 82 1012.2
20260507043059 50 0 0.0 0.0 0.00 0.00 0.00 82 1012.0
20260507041556 51 0 0.0 0.0 0.00 0.00 0.00 81 1011.9
20260507040058 51 0 0.0 0.0 0.00 0.00 0.00 80 1011.8
20260507034555 52 0 0.0 0.0 0.00 0.00 0.00 79 1011.7
20260507033057 52 0 0.0 0.0 0.00 0.00 0.00 79 1011.6
20260507031555 52 0 0.0 0.0 0.00 0.00 0.00 78 1011.5
20260507030056 52 0 0.0 0.0 0.00 0.00 0.00 79 1011.6
20260507024555 52 0 0.0 0.0 0.00 0.00 0.00 78 1011.5
20260507023055 52 0 0.0 0.0 0.00 0.00 0.00 79 1011.7
20260507021556 52 0 0.0 0.0 0.00 0.00 0.00 78 1011.7
20260507020118 53 0 0.0 0.0 0.00 0.00 0.00 79 1011.7
20260507014601 53 0 0.0 0.0 0.00 0.00 0.00 78 1011.7
20260507013057 53 0 0.0 2.0 0.00 0.00 0.00 78 1011.6
20260507011557 53 0 0.0 0.0 0.00 0.00 0.00 78 1011.6
20260507010110 53 0 0.0 0.0 0.00 0.00 0.00 77 1011.5
20260507004557 54 0 0.0 0.0 0.00 0.00 0.00 77 1011.3
20260507003054 54 0 0.0 0.0 0.00 0.00 0.00 76 1011.2
20260507001605 54 0 0.0 0.0 0.00 0.00 0.00 76 1011.2
20260507000059 54 360 0.0 1.0 0.00 0.00 0.00 76 1011.3
20260506234600 55 0 0.0 0.0 0.00 0.00 0.00 75 1011.1
20260506233100 55 0 0.0 0.0 0.00 0.00 0.00 74 1011.2
20260506231610 56 0 0.0 0.0 0.00 0.00 0.00 74 1011.1
20260506230126 56 0 0.0 0.0 0.00 0.00 0.00 72 1011.2
20260506224603 57 0 0.0 1.0 0.00 0.00 0.00 71 1011.2
20260506223103 57 0 0.0 0.0 0.00 0.00 0.00 70 1011.0
20260506221631 58 0 0.0 0.0 0.00 0.00 0.00 70 1011.1
20260506220124 58 0 0.0 3.0 0.00 0.00 0.00 70 1011.2
20260506214600 58 0 0.0 2.0 0.00 0.00 0.00 70 1011.3
20260506213110 58 0 0.0 2.0 0.00 0.00 0.00 70 1011.1
20260506211600 59 360 0.0 0.0 0.00 0.00 0.00 70 1011.2
20260506210106 59 0 0.0 0.0 0.00 0.00 0.00 68 1011.1
20260506204607 60 360 0.0 2.0 0.00 0.00 0.00 68 1011.1
20260506203058 61 0 0.0 2.0 0.00 0.00 0.00 66 1010.8
20260506201558 61 0 0.0 2.0 0.00 0.00 0.00 63 1010.8
20260506200057 63 0 0.0 3.0 0.00 0.00 0.00 62 1010.5
20260506194559 64 277 1.0 4.0 0.00 0.00 0.00 55 1010.1
20260506193104 64 0 1.0 8.0 0.00 0.00 0.00 54 1009.8
20260506191619 64 178 1.0 5.0 0.00 0.00 0.00 55 1009.4
20260506190058 65 0 0.0 2.0 0.00 0.00 0.00 57 1009.2
20260506184627 66 0 0.0 2.0 0.00 0.00 0.00 54 1009.0
20260506183104 67 175 0.0 2.0 0.00 0.00 0.00 54 1008.8
20260506181600 68 0 0.0 3.0 0.00 0.00 0.00 52 1008.7
20260506180058 68 187 1.0 5.0 0.00 0.00 0.00 50 1008.4
20260506174557 69 207 1.0 5.0 0.00 0.00 0.00 50 1008.3
20260506173100 70 0 1.0 7.0 0.00 0.00 0.00 49 1008.2
20260506171612 70 136 2.0 7.0 0.00 0.00 0.00 49 1008.2
20260506170100 70 198 2.0 8.0 0.00 0.00 0.00 49 1008.0
20260506164555 71 169 2.0 9.0 0.00 0.01 0.00 49 1008.1
20260506163107 71 0 2.0 9.0 0.00 0.01 0.00 49 1008.0
20260506161557 71 167 2.0 8.0 0.00 0.01 0.00 49 1007.9
20260506160109 71 326 3.0 13.0 0.00 0.01 0.00 50 1007.9
20260506154558 71 217 2.0 8.0 0.00 0.01 0.00 52 1007.9
20260506153057 72 360 2.0 10.0 0.00 0.01 0.00 52 1008.0
20260506151557 73 360 2.0 10.0 0.00 0.01 0.00 55 1007.9
20260506150057 73 360 2.0 10.0 0.00 0.01 0.00 52 1007.9